KLM3CM ENBR-LOWW

Flight info

Callsign KLM3CM
Flight time N/A
Altitude 39000
Route TINIG DCT NEDIK DCT HDO DCT EVIKU DCT BITSI DCT MIKOV MIKOV8W
Aircraft A20N/M-SDE2E3FGHIRWXY/LB1

Departure

Time N/A
Airport Bergen Airport, Flesland (ENBR)

Arrival

Time 2026-05-06 21:58
Airport Vienna International Airport (LOWW)
Time Latitude Longitude Altitude Speed Heading
2026-05-06 21:45 48.49275 16.55036 4175 ft 220 kts 339°
2026-05-06 21:45 48.50747 16.54412 4170 ft 221 kts 339°
2026-05-06 21:45 48.52230 16.53781 4171 ft 221 kts 338°
2026-05-06 21:45 48.53502 16.52653 4163 ft 208 kts 302°
2026-05-06 21:46 48.53984 16.50685 4173 ft 201 kts 273°
2026-05-06 21:46 48.53912 16.48590 4167 ft 201 kts 258°
2026-05-06 21:46 48.53543 16.46549 4166 ft 202 kts 248°
2026-05-06 21:46 48.52831 16.44729 4166 ft 202 kts 232°
2026-05-06 21:47 48.51794 16.43296 4163 ft 204 kts 216°
2026-05-06 21:47 48.50488 16.42398 4172 ft 210 kts 198°
2026-05-06 21:47 48.49075 16.42230 4207 ft 201 kts 179°
2026-05-06 21:47 48.47751 16.42633 4176 ft 187 kts 171°
2026-05-06 21:48 48.46558 16.43146 4163 ft 169 kts 170°
2026-05-06 21:48 48.45495 16.43621 4175 ft 153 kts 171°
2026-05-06 21:48 48.44482 16.44062 4183 ft 150 kts 172°
2026-05-06 21:48 48.43505 16.44483 4178 ft 144 kts 172°
2026-05-06 21:49 48.42541 16.44880 4176 ft 143 kts 174°
2026-05-06 21:49 48.41578 16.45247 4179 ft 143 kts 172°
2026-05-06 21:49 48.40616 16.45643 4181 ft 143 kts 172°
2026-05-06 21:49 48.39669 16.46036 4181 ft 143 kts 172°
2026-05-06 21:50 48.38709 16.46433 4177 ft 143 kts 172°
2026-05-06 21:50 48.37753 16.46832 4178 ft 143 kts 172°
2026-05-06 21:50 48.36791 16.47237 4185 ft 143 kts 172°
2026-05-06 21:50 48.35831 16.47646 4180 ft 143 kts 172°
2026-05-06 21:51 48.35197 16.47919 4182 ft 143 kts 172°
2026-05-06 21:51 48.34237 16.48333 4183 ft 144 kts 172°
2026-05-06 21:51 48.32951 16.48888 4187 ft 144 kts 172°
2026-05-06 21:51 48.32000 16.49298 4188 ft 144 kts 172°
2026-05-06 21:52 48.31043 16.49709 4187 ft 143 kts 172°
2026-05-06 21:52 48.30407 16.49981 4186 ft 143 kts 172°
2026-05-06 21:52 48.29128 16.50525 4110 ft 143 kts 172°
2026-05-06 21:52 48.28170 16.50932 3924 ft 143 kts 172°
2026-05-06 21:53 48.27221 16.51337 3721 ft 141 kts 172°
2026-05-06 21:53 48.26283 16.51737 3531 ft 139 kts 171°
2026-05-06 21:53 48.25362 16.52130 3343 ft 136 kts 171°
2026-05-06 21:53 48.24459 16.52515 3164 ft 134 kts 171°
2026-05-06 21:54 48.23583 16.52888 2990 ft 132 kts 171°
2026-05-06 21:54 48.22705 16.53262 2820 ft 131 kts 171°
2026-05-06 21:54 48.21833 16.53633 2650 ft 130 kts 171°
2026-05-06 21:54 48.21261 16.53876 2539 ft 129 kts 171°
2026-05-06 21:55 48.20119 16.54362 2314 ft 127 kts 171°
2026-05-06 21:55 48.19271 16.54722 2142 ft 126 kts 170°
2026-05-06 21:55 48.18436 16.55078 1977 ft 124 kts 170°
2026-05-06 21:55 48.17893 16.55308 1868 ft 122 kts 170°
2026-05-06 21:56 48.16828 16.55761 1657 ft 119 kts 169°
2026-05-06 21:56 48.16031 16.56098 1486 ft 118 kts 168°
2026-05-06 21:56 48.15495 16.56326 1380 ft 119 kts 167°
2026-05-06 21:56 48.14435 16.56776 1156 ft 122 kts 168°
2026-05-06 21:57 48.13893 16.57006 1039 ft 123 kts 168°
2026-05-06 21:57 48.13066 16.57357 862 ft 123 kts 167°
2026-05-06 21:57 48.12246 16.57704 698 ft 122 kts 165°
2026-05-06 21:57 48.11222 16.58139 621 ft 100 kts 164°
2026-05-06 21:58 48.10630 16.58389 620 ft 71 kts 164°
2026-05-06 21:58 48.10257 16.58448 612 ft 48 kts 194°
2026-05-06 21:58 48.10106 16.58316 623 ft 20 kts 261°
2026-05-06 21:58 48.10182 16.58155 616 ft 13 kts 351°
2026-05-06 21:59 48.10238 16.58136 623 ft 12 kts 345°
2026-05-06 21:59 48.10331 16.58095 615 ft 16 kts 343°
2026-05-06 21:59 48.10458 16.58043 620 ft 21 kts 345°
2026-05-06 21:59 48.10615 16.57976 615 ft 26 kts 342°
2026-05-06 22:00 48.10798 16.57898 625 ft 29 kts 343°
2026-05-06 22:00 48.11005 16.57809 615 ft 32 kts 346°
2026-05-06 22:00 48.11168 16.57680 616 ft 27 kts 298°
2026-05-06 22:00 48.11252 16.57422 620 ft 29 kts 295°
2026-05-06 22:01 48.11343 16.57136 620 ft 32 kts 297°
2026-05-06 22:01 48.11444 16.56831 623 ft 34 kts 295°
2026-05-06 22:01 48.11550 16.56507 621 ft 35 kts 296°
2026-05-06 22:01 48.11658 16.56174 618 ft 36 kts 296°
2026-05-06 22:02 48.11753 16.55881 620 ft 23 kts 298°
2026-05-06 22:02 48.11836 16.55852 612 ft 7 kts 37°
2026-05-06 22:02 48.11905 16.55910 612 ft 15 kts 26°
2026-05-06 22:02 48.11954 16.55908 622 ft 6 kts 300°
2026-05-06 22:03 48.11974 16.55842 624 ft 0 kts 297°